User: anonymous   Login
Location: Gleizolles
(44.4833°N, 6.7667°E)
Time: 12:32:55
(UTC+00:00)
Language:

STRAND 1 - Orbit

View from above orbital plane
View from above orbital plane
View from above satellite
View from above satellite

Ground track
Ground track

The orbit data is extracted from the following two-line orbital elements,

1 39090U 13009E   22341.52995927  .00000328  00000-0  12898-3 0  9998
2 39090  98.3921 175.0902 0010024 113.0207 247.2037 14.35380585512229
Epoch (UTC): 07 December 2022 12:43:08
Eccentricity: 0.0010024
inclination: 98.3921°
perigee height: 766 km
apogee height: 781 km
right ascension of ascending node: 175.0902°
argument of perigee: 113.0207°
revolutions per day: 14.35380585
mean anomaly at epoch: 247.2037°
orbit number at epoch: 51222

The dashed part of the orbit path shows where the satellite is in the earth's shadow,  

DLR